This is the latest recevied weather packets stored in our database for station/object N7JP. If no packets are shown the sender has not sent any weather packets the latest 10 day(s).
| Time | Temp. | Humidity | Pressure | Rain* | Wind** | Luminosity | Snow |
|---|---|---|---|---|---|---|---|
| 1777707369 | 10.56° C | 90% | 1011.5 hPa | 0 mm | - | - | - |
| 1777706469 | 10.56° C | 90% | 1011.4 hPa | 0 mm | - | - | - |
| 1777705549 | 10.56° C | 90% | 1011.2 hPa | 0 mm | - | - | - |
| 1777704651 | 10.56° C | 89% | 1011.3 hPa | 0 mm | - | - | - |
| 1777703723 | 10.56° C | 88% | 1011 hPa | 0 mm | - | - | - |
| 1777702823 | 11.11° C | 87% | 1011 hPa | 0 mm | - | - | - |
| 1777701921 | 11.11° C | 87% | 1011.1 hPa | 0 mm | - | - | - |
| 1777701003 | 11.11° C | 86% | 1010.9 hPa | 0 mm | - | - | - |
| 1777700108 | 11.67° C | 86% | 1010.9 hPa | 0 mm | - | - | - |
| 1777699201 | 11.67° C | 85% | 1010.8 hPa | 0 mm | - | - | - |
| 1777698301 | 11.67° C | 83% | 1010.6 hPa | 0 mm | - | - | - |
| 1777697400 | 12.22° C | 81% | 1010.6 hPa | 0 mm | - | - | - |
| 1777696500 | 12.78° C | 79% | 1010.5 hPa | 0 mm | - | - | - |
| 1777695599 | 12.78° C | 78% | 1010.5 hPa | 0 mm | - | - | - |
| 1777694698 | 12.78° C | 79% | 1010.3 hPa | 0 mm | - | - | - |
| 1777693797 | 13.33° C | 77% | 1009.9 hPa | 0 mm | - | - | - |
| 1777692867 | 13.89° C | 74% | 1010 hPa | 0 mm | - | - | - |
| 1777691967 | 13.89° C | 72% | 1009.8 hPa | 0 mm | - | - | - |
| 1777691069 | 13.89° C | 76% | 1009.6 hPa | 0 mm | - | - | - |
| 1777690168 | 13.89° C | 77% | 1009.9 hPa | 0 mm | - | - | - |
| 1777689268 | 14.44° C | 78% | 1009.4 hPa | 0 mm | - | - | - |
| 1777688339 | 13.89° C | 79% | 1009.4 hPa | 0 mm | - | - | - |
| 1777687439 | 13.89° C | 78% | 1009.5 hPa | 0 mm | - | - | - |
| 1777686538 | 13.89° C | 77% | 1009.6 hPa | 0 mm | - | - | - |
| 1777685629 | 13.89° C | 78% | 1009.6 hPa | 0 mm | - | - | - |
* Rain latest hour (hover to see other rain measurements)
** Current wind speed in m/s (hover to see current wind gust speed)